User: anonymous   Login
Location: Caltech
(34.1382°N, 118.1253°W)
Time: 05:49:21
(UTC-07:00)
Language:

Cosmos 2322 - Orbit

View from above orbital plane
View from above orbital plane
View from above satellite
View from above satellite

Ground track
Ground track

The orbit data is extracted from the following two-line orbital elements,

1 23704U 95058A   15245.22174069  .00000347  00000-0  20990-3 0  9998
2 23704  70.9875 334.4309 0009597 354.5879  31.9469 14.13326457 23442
Epoch (UTC): 02 September 2015 05:19:18
Eccentricity: 0.0009597
inclination: 70.9875°
perigee height: 841 km
apogee height: 855 km
right ascension of ascending node: 334.4309°
argument of perigee: 354.5879°
revolutions per day: 14.13326457
mean anomaly at epoch: 31.9469°
orbit number at epoch: 2344

The dashed part of the orbit path shows where the satellite is in the earth's shadow,  

DLR